#timestamp,LO_Frequency,Hit,StdDev 
1605279615.7,286047016.3,N
1605279635.6,286047020.6,Y
1605279655.4,286047004.5,P
1605279675.2,286047006.2,N
1605279695.1,286047006.7,N
1605279696.0,286047006.7,N
1605279715.8,286047003.3,N
1605279735.7,286047002.5,N
1605279755.5,286046998.5,N
1605279775.3,286046997.5,N
1605279795.2,286046997.3,N
1605279815.0,286046995.7,N
1605279815.9,286046995.7,N
1605279835.8,286046993.0,N
1605279855.6,286046992.7,N
1605279875.4,286046992.6,N
1605279895.3,286046994.8,N
1605279915.1,286046993.9,N
1605279935.8,286046993.4,N
1605279955.7,286046996.0,N
1605279975.5,286046999.2,N
1605279995.4,286046998.6,N
1605280015.2,286047006.6,N
1605280035.0,286047008.1,N
1605280035.9,286047008.1,N
1605280055.8,286047009.9,N
1605280075.6,286047010.7,N
1605280095.5,286047005.4,N
1605280115.3,286047003.3,N
1605280135.2,286047003.6,N
1605280155.9,286047004.4,N
1605280175.7,286047001.7,N
1605280195.6,286047005.1,N
1605280215.4,286047005.9,N
1605280235.2,286046998.2,N
1605280255.1,286047001.1,N
1605280256.0,286047001.1,N
1605280275.8,286047000.3,N
1605280295.7,286047001.5,N
1605280315.5,286046996.7,N
1605280335.3,286046995.2,N
1605280355.2,286046991.1,N
1605280375.0,286046991.0,N
1605280375.9,286046991.0,N
1605280395.8,286046992.6,N
1605280415.6,286046995.2,N
1605280435.4,286046997.4,N
1605280455.3,286047001.1,N
1605280475.1,286046999.1,N
1605280495.8,286047001.9,N
1605280515.7,286047003.9,N
1605280535.5,286047004.4,N
1605280555.4,286047003.5,N
1605280575.2,286047009.1,N
1605280595.0,286047018.5,Y
1605280595.9,286047018.5,P
1605280615.8,286047023.6,N
1605280635.6,286047027.6,N
1605280655.5,286047027.6,N
1605280675.3,286047022.8,N
1605280695.1,286047017.8,N
1605280715.9,286047014.9,N
1605280735.7,286047012.9,N
1605280755.5,286047018.3,N
1605280775.4,286047020.2,N
1605280795.2,286047016.4,N
1605280815.1,286047013.7,N
1605280816.0,286047013.7,N
1605280835.8,286047013.9,N
1605280855.6,286047017.2,N
1605280875.5,286047021.2,Y
1605280895.3,286047003.1,P
1605280915.1,286047004.7,N
1605280935.9,286047007.6,N
1605280955.7,286047001.5,N
1605280975.6,286047003.0,N
1605280995.4,286046997.1,N
1605281015.2,286046998.7,N
1605281035.1,286046993.8,N
1605281036.0,286046993.8,N
1605281055.8,286046993.4,N
1605281075.7,286046996.9,N
1605281095.5,286047003.8,N
1605281115.3,286047001.0,N
1605281135.2,286047002.6,N
1605281155.0,286047001.4,N
1605281155.9,286047001.4,N
1605281175.7,286047003.2,N
1605281195.6,286047008.3,N
1605281215.4,286047013.5,N
1605281235.3,286047013.8,N
1605281255.1,286047014.5,N
1605281256.0,286047014.5,N
1605281275.8,286047019.6,N
1605281295.7,286047021.2,N
1605281315.5,286047019.6,N
1605281335.3,286047019.7,N
1605281355.2,286047020.5,N
1605281375.0,286047028.1,Y
1605281375.9,286047028.1,P
1605281395.8,286047022.5,N
1605281415.6,286047020.8,N
1605281435.5,286047024.0,Y
1605281455.3,286047001.6,P
1605281475.1,286047003.5,N
1605281495.9,286047001.4,N
1605281515.7,286047000.1,N
1605281535.5,286047008.8,N
1605281555.4,286047010.9,N
1605281575.2,286047008.2,N
1605281595.1,286047006.5,N
1605281596.0,286047006.5,N
1605281615.8,286047005.8,N
1605281635.6,286047002.2,N
1605281655.5,286046999.0,N
1605281675.3,286046993.4,N
1605281695.1,286046993.2,N
1605281715.9,286046989.1,N
1605281735.7,286046989.0,N
1605281755.6,286046989.8,N
1605281775.4,286046991.1,N
1605281795.2,286046991.3,N
1605281815.1,286046991.3,N
1605281816.0,286046991.3,N
1605281835.8,286046993.9,N
1605281855.7,286046993.5,N
1605281875.5,286046994.5,N
1605281895.3,286046992.2,N
1605281915.2,286046988.6,N
1605281935.9,286046991.0,N
1605281955.7,286046987.5,N
1605281975.6,286046986.2,N
1605281995.4,286046988.2,N
1605282015.3,286046988.5,N
1605282035.1,286046998.0,N
1605282036.0,286046998.0,N
1605282055.8,286046997.6,N
1605282075.7,286046998.6,N
1605282095.5,286046997.2,N
1605282115.3,286046996.9,N
1605282135.2,286046995.4,N
1605282155.0,286046999.2,N
1605282155.9,286046999.2,N
1605282175.8,286047005.2,N
1605282195.6,286047007.8,N
1605282215.4,286047011.7,N
1605282235.3,286047011.9,N
1605282255.1,286047011.2,N
1605282275.8,286047009.8,N
1605282295.7,286047010.4,N
1605282315.5,286047011.9,N
1605282335.4,286047012.9,N
1605282355.2,286047019.3,N
1605282375.0,286047023.1,N
1605282375.9,286047023.1,N
1605282395.8,286047029.9,N
1605282415.6,286047028.4,N
1605282435.4,286047029.8,N
1605282455.3,286047024.8,N
1605282475.1,286047025.7,N
1605282495.9,286047022.4,N
1605282515.7,286047020.4,N
1605282535.5,286047021.4,N
1605282555.4,286047023.3,N
1605282575.2,286047025.5,N
1605282595.0,286047016.0,N
1605282595.9,286047016.0,N
1605282615.8,286047020.2,N
1605282635.6,286047017.6,N
1605282655.5,286047014.5,N
1605282675.3,286047014.8,N
1605282695.1,286047011.9,N
1605282715.9,286047012.9,N
1605282735.7,286047018.6,N
1605282755.6,286047023.0,Y
1605282775.4,286046999.3,P
1605282795.2,286046994.5,N
1605282815.1,286046994.1,N
1605282816.0,286046994.1,N
1605282835.8,286046995.4,N
1605282855.6,286046990.2,N
1605282875.5,286046992.5,N
1605282895.3,286046993.1,N
1605282915.1,286046992.7,N
1605282935.9,286047001.1,N
1605282955.7,286047000.7,N
1605282975.6,286047001.0,N
1605282995.4,286046998.9,N
1605283015.2,286046995.2,N
1605283035.1,286046991.2,N
1605283036.0,286046991.2,N
1605283055.8,286046987.0,N
1605283075.6,286046987.0,N
1605283095.5,286046989.3,N
1605283115.3,286046992.8,N
1605283135.2,286046993.2,N
1605283155.9,286046990.0,N
1605283175.7,286046989.3,N
1605283195.6,286046992.3,N
